Regional Weather Roundup
Issued by NWS Charleston, SC

Current Version | Previous Version | Graphics & Text | Print | Product List | Glossary On
Versions: 1 2 3 4 5 6 7 8 9 10 11 12 13 14 15 16 17 18 19 20 21 22 23 24 25 26 27 28 29 30 31 32 33 34 35 36 37 38 39 40 41 42 43 44 45 46 47 48 49 50
000 ASUS42 KCHS 222326 RWRCHS REGIONAL WEATHER ROUNDUP NATIONAL WEATHER SERVICE CHARLESTON SC 600 PM EST WED FEB 22 2017 NOTE: "FAIR" INDICATES FEW OR NO CLOUDS BELOW 12,000 FEET WITH NO SIGNIFICANT WEATHER AND/OR OBSTRUCTIONS TO VISIBILITY. NOT ALL STATIONS ARE QUALITY CONTROLLED. USE DATA WITH CAUTION... ESPECIALLY DEWPOINT OBSERVATIONS. SCZ027-030-031-034>040-042>050-230000- ...SOUTHEAST SOUTH CAROLINA... CITY SKY/WX TMP DP RH WIND PRES REMARKS N CHARLESTON CLOUDY 68 58 70 E13 29.87F WATERFRONT PRK N/A 65 61 87 E8 29.86F MOUNT PLEASANT FAIR 66 61 82 E3 29.88S JOHNS ISLAND FAIR 66 61 82 E8 29.88R PINOPOLIS N/A 68 59 73 SE7 29.80F MONCKS CORNER FAIR 66 55 68 E7 29.88F SUMMERVILLE FAIR 68 59 73 E6 29.89R BEAUFORT MCAS CLOUDY 68 61 78 E8 29.86R BEAUFORT ARPT MOCLDY 64 61 88 E7 29.86R HILTON HEAD IS PTCLDY 66 61 82 E9 29.86R WALTERBORO CLOUDY 66 57 72 E7 29.88S ALLENDALE CLOUDY 68 57 68 CALM 29.85S ...SOUTHERN MIDLANDS AND PEE DEE... CITY SKY/WX TMP DP RH WIND PRES REMARKS GEORGETOWN FAIR 63 55 77 E5 29.92R KINGSTREE FAIR 64 54 68 E6 29.91S ORANGEBURG MOCLDY 70 56 61 E6 29.87S BARNWELL FAIR 70 57 64 E3 29.87R AIKEN FAIR 64 55 72 E3 29.91S MANNING FAIR 66 45 45 MISG 29.90S COLUMBIA MOCLDY 71 53 52 SE7 29.87S SUMTER MOCLDY 70 53 54 SE10 29.87R FLORENCE CLOUDY 69 50 50 S8 29.91R MYRTLE BEACH PTCLDY 64 57 77 E9 29.93S N MYRTLE BEACH MOCLDY 65 56 72 E6 29.92S $$ GAZ063-065-086>088-099>101-113>116-118-119-134>141-150-230000- ...SOUTHEAST GEORGIA... CITY SKY/WX TMP DP RH WIND PRES REMARKS SAVANNAH ARPT CLOUDY 67 60 78 E10 29.84S HUNTER AAF CLOUDY 65 65 99 E7 29.81S FORT STEWART CLOUDY 64 63 94 E10 29.81R STATESBORO CLOUDY 65 65 100 NE5 29.85S SYLVANIA CLOUDY N/A N/A N/A E5 29.86S CLAXTON RAIN N/A N/A N/A CALM 29.84S ...CSRA...CENTRAL AND FAR SOUTHEAST GEORGIA... CITY SKY/WX TMP DP RH WIND PRES REMARKS THOMSON MOCLDY 67 63 86 CALM 29.92R AUGUSTA-BUSH CLOUDY 71 58 63 E3 29.85S AUGUSTA-DANIEL MOCLDY 71 55 56 SE5 29.87R SWAINSBORO LGT RAIN 63 63 100 E9 29.87R VIDALIA LGT RAIN 64 64 100 NE12 29.83S EASTMAN DRIZZLE 66 64 94 E3 29.86R HAZLEHURST CLOUDY 65 65 100 NE7 29.81S ALMA LGT RAIN 64 64 100 CALM 29.80S FOG WAYCROSS HVY RAIN 66 66 100 NE6 29.80R JESUP DRIZZLE 66 63 88 E6 29.81S BAXLEY CLOUDY 64 64 100 NE8 29.80F BRUNSWICK MOCLDY 68 64 88 S8 29.81R SAINT SIMONS LGT RAIN 65 63 93 CALM 29.79R $$ SCZ027-028-034-036>038-045-046-048>050-GAZ119-141-230000- ...LAKE AND SUPPLEMENTAL COASTAL OBSERVATIONS... STATION/POSITION TIME TEMP WIND PRES WAVE SWELL AIR SEA DIR/SP/G HT/PER HT/PER/DIR (UTC) (F) (DEG/KT/KT) (MB) (FT/S) (FT/S/D) WINYAH BAY 2230 65 70/ 7 1012.0S LAKE MURRAY 2250 70 110/ 3/ 5 1011.2S ACE BASIN NERRS 2245 68 70/ 4 1011.0S FORT PULASKI 2300 64 61 80/ 13/ 16 1010.4 SAPELO ISLAND 2300 65 70/ 7 1009.0 $$ ANZ835-935-AMZ111-154-330-350-352-354-370-450-454-472-230000- ...C-MAN AND BUOY OBSERVATIONS... STATION/POSITION TIME TEMP WIND PRES WAVE SWELL AIR SEA DIR/SP/G HT/PER HT/PER/DIR (UTC) (F) (DEG/KT/KT) (MB) (FT/S) (FT/S/D) BUOY 41004 2250 69 70 110/ 19/ 23 1010.2F 6/ 7 2/ 90/ 8 BUOY 41008 2250 67 63 100/ 8/ 10 1008.6R 6/ 7 5/130/ 7 FOLLY BEACH CMAN 2300 63 90/ 10/ 11 1012.0F CAPERS NEARSHORE 2208 62 59 90/ 6/ 10 1011.7S FRIPP NEARSHORE 2308 63 60 70/ 10/ 14 1010.4R STATION/POSITION TIME TEMP WIND PRES WAVE SWELL AIR SEA DIR/SP/G HT/PER HT/PER/DIR (UTC) (F) (DEG/KT/KT) (MB) (FT/S) (FT/S/D) 5E ST. MARYS GA 2300 63 N/A 6/ 7 FRYING PAN BUOY 2310 69 69 120/ 12/ 16 1013.0 BUOY 41025 2250 67 75 130/ 8/ 12 1014.8R 3/ 8 2/ 70/ 8 CAPE LOOKOUT NC 2300 63 150/ 1/ 2 1014.0R BUOY 41002 2250 66 70 100/ 14/ 17 1014.6F 5/ 9 3/ 50/ 9 BUOY 41010 NOT AVBL ST AUGUSTINE FL 2300 66 68 100/ 14/ 16 1008.2R $$

USA.gov is the U.S. government's official web portal to all federal, state and local government web resources and services.